Time,TemperatureF,DewpointF,PressureIn,WindDirection,WindDirectionDegrees,WindSpeedMPH,WindSpeedGustMPH,Humidity,HourlyPrecipIn,Conditions,Clouds,dailyrainin,SoftwareType,DateUTC
2013-04-01 00:09:00,34.7,24.1,29.97,West,267,0.0,0.0,65,0.00,,,0.00,Wunderground v.1.15,2013-04-01 06:09:00,
2013-04-01 00:19:00,34.6,23.7,29.98,West,267,0.0,0.0,64,0.00,,,0.00,Wunderground v.1.15,2013-04-01 06:19:00,
2013-04-01 00:24:00,34.6,23.7,29.98,West,267,0.0,0.0,64,0.00,,,0.00,Wunderground v.1.15,2013-04-01 06:24:00,
2013-04-01 00:29:00,34.5,23.9,29.97,West,267,0.0,0.0,65,0.00,,,0.00,Wunderground v.1.15,2013-04-01 06:29:00,
2013-04-01 00:39:00,34.1,23.6,29.98,West,267,0.0,0.0,65,0.00,,,0.00,Wunderground v.1.15,2013-04-01 06:39:00,
2013-04-01 00:44:00,33.9,23.7,29.98,SSW,207,0.0,0.0,66,0.00,,,0.00,Wunderground v.1.15,2013-04-01 06:44:00,
2013-04-01 00:54:00,33.4,24.0,29.98,SSW,211,0.0,0.0,68,0.00,,,0.00,Wunderground v.1.15,2013-04-01 06:54:00,
2013-04-01 00:59:00,33.2,23.4,29.98,SSW,211,0.0,0.0,67,0.00,,,0.00,Wunderground v.1.15,2013-04-01 06:59:00,
2013-04-01 01:09:00,33.2,23.1,29.98,SSW,211,0.0,0.0,66,0.00,,,0.00,Wunderground v.1.15,2013-04-01 07:09:00,
2013-04-01 01:14:00,33.0,23.6,29.98,SSW,209,0.0,0.0,68,0.00,,,0.00,Wunderground v.1.15,2013-04-01 07:14:00,
2013-04-01 01:24:00,32.7,22.9,29.98,SSW,209,0.0,0.0,67,0.00,,,0.00,Wunderground v.1.15,2013-04-01 07:24:00,
2013-04-01 01:29:00,32.8,23.0,29.98,SSW,209,0.0,0.0,67,0.00,,,0.00,Wunderground v.1.15,2013-04-01 07:29:00,
2013-04-01 01:34:00,32.6,22.8,29.98,SSW,209,0.0,0.0,67,0.00,,,0.00,Wunderground v.1.15,2013-04-01 07:34:00,
2013-04-01 01:44:00,32.5,22.8,29.98,SSE,152,0.0,0.0,67,0.00,,,0.00,Wunderground v.1.15,2013-04-01 07:44:00,
2013-04-01 01:49:00,32.5,22.8,29.98,SE,132,0.0,0.0,67,0.00,,,0.00,Wunderground v.1.15,2013-04-01 07:49:00,
2013-04-01 01:54:00,32.5,22.8,29.98,SE,142,0.0,0.0,67,0.00,,,0.00,Wunderground v.1.15,2013-04-01 07:54:00,
2013-04-01 01:59:00,32.3,22.9,29.98,SE,126,0.0,0.0,68,0.00,,,0.00,Wunderground v.1.15,2013-04-01 07:59:00,
2013-04-01 02:09:00,32.3,22.9,29.98,ESE,118,0.0,0.0,68,0.00,,,0.00,Wunderground v.1.15,2013-04-01 08:09:00,
2013-04-01 02:14:00,32.4,23.4,29.98,ESE,109,0.0,0.0,69,0.00,,,0.00,Wunderground v.1.15,2013-04-01 08:14:00,
2013-04-01 02:19:00,32.3,23.3,29.98,ESE,103,0.0,0.0,69,0.00,,,0.00,Wunderground v.1.15,2013-04-01 08:19:00,
2013-04-01 02:24:00,32.4,23.7,29.98,East,98,0.0,3.0,70,0.00,,,0.00,Wunderground v.1.15,2013-04-01 08:24:00,
2013-04-01 02:29:00,32.5,23.1,29.98,East,86,1.0,6.0,68,0.00,,,0.00,Wunderground v.1.15,2013-04-01 08:29:00,
2013-04-01 02:39:00,33.1,23.0,29.98,ESE,107,3.0,4.0,66,0.00,,,0.00,Wunderground v.1.15,2013-04-01 08:39:00,
2013-04-01 02:44:00,32.8,23.0,29.98,East,84,2.0,4.0,67,0.00,,,0.00,Wunderground v.1.15,2013-04-01 08:44:00,
2013-04-01 02:49:00,32.7,23.3,29.98,East,89,1.0,2.0,68,0.00,,,0.00,Wunderground v.1.15,2013-04-01 08:49:00,
2013-04-01 02:54:00,32.8,23.0,29.98,East,82,2.0,5.0,67,0.00,,,0.00,Wunderground v.1.15,2013-04-01 08:54:00,
2013-04-01 02:59:00,33.1,23.0,29.97,ESE,102,3.0,3.0,66,0.00,,,0.00,Wunderground v.1.15,2013-04-01 08:59:00,
2013-04-01 03:09:00,33.2,22.7,29.98,East,93,4.0,4.0,65,0.00,,,0.00,Wunderground v.1.15,2013-04-01 09:09:00,
2013-04-01 03:19:00,33.1,23.0,29.97,East,96,4.0,8.0,66,0.00,,,0.00,Wunderground v.1.15,2013-04-01 09:19:00,
2013-04-01 03:29:00,33.4,23.3,29.97,East,96,3.0,3.0,66,0.00,,,0.00,Wunderground v.1.15,2013-04-01 09:29:00,
2013-04-01 03:34:00,33.3,22.8,29.97,ESE,102,3.0,5.0,65,0.00,,,0.00,Wunderground v.1.15,2013-04-01 09:34:00,
2013-04-01 03:44:00,33.5,23.0,29.97,ESE,103,5.0,5.0,65,0.00,,,0.00,Wunderground v.1.15,2013-04-01 09:44:00,
2013-04-01 03:54:00,33.3,22.8,29.97,East,86,5.0,5.0,65,0.00,,,0.00,Wunderground v.1.15,2013-04-01 09:54:00,
2013-04-01 03:59:00,33.5,23.0,29.97,ENE,69,6.0,6.0,65,0.00,,,0.00,Wunderground v.1.15,2013-04-01 09:59:00,
2013-04-01 04:09:00,33.3,22.8,29.97,East,98,5.0,5.0,65,0.00,,,0.00,Wunderground v.1.15,2013-04-01 10:09:00,
2013-04-01 04:14:00,33.2,22.7,29.97,East,93,5.0,5.0,65,0.00,,,0.00,Wunderground v.1.15,2013-04-01 10:14:00,
2013-04-01 04:19:00,33.3,22.8,29.97,East,92,6.0,6.0,65,0.00,,,0.00,Wunderground v.1.15,2013-04-01 10:19:00,
2013-04-01 04:29:00,33.2,22.7,29.97,East,98,6.0,6.0,65,0.00,,,0.00,Wunderground v.1.15,2013-04-01 10:29:00,
2013-04-01 04:39:00,33.2,23.1,29.98,ESE,103,6.0,6.0,66,0.00,,,0.00,Wunderground v.1.15,2013-04-01 10:39:00,
2013-04-01 04:44:00,33.2,23.1,29.97,East,88,6.0,7.0,66,0.00,,,0.00,Wunderground v.1.15,2013-04-01 10:44:00,
2013-04-01 04:49:00,33.1,23.3,29.98,East,92,6.0,7.0,67,0.00,,,0.00,Wunderground v.1.15,2013-04-01 10:49:00,
2013-04-01 04:54:00,33.3,23.2,29.98,ESE,109,6.0,7.0,66,0.00,,,0.00,Wunderground v.1.15,2013-04-01 10:54:00,
2013-04-01 04:59:00,33.5,23.4,29.98,East,89,6.0,7.0,66,0.00,,,0.00,Wunderground v.1.15,2013-04-01 10:59:00,
2013-04-01 05:09:00,33.4,22.9,29.98,East,89,7.0,9.0,65,0.00,,,0.00,Wunderground v.1.15,2013-04-01 11:09:00,
2013-04-01 05:14:00,33.4,23.3,29.98,East,98,7.0,9.0,66,0.00,,,0.00,Wunderground v.1.15,2013-04-01 11:14:00,
2013-04-01 05:24:00,33.4,23.3,29.98,East,94,6.0,6.0,66,0.00,,,0.00,Wunderground v.1.15,2013-04-01 11:24:00,
2013-04-01 05:29:00,33.2,23.1,29.98,East,94,6.0,7.0,66,0.00,,,0.00,Wunderground v.1.15,2013-04-01 11:29:00,
2013-04-01 05:34:00,33.2,23.4,29.98,East,84,6.0,7.0,67,0.00,,,0.00,Wunderground v.1.15,2013-04-01 11:34:00,
2013-04-01 05:44:00,33.6,23.4,29.98,East,80,8.0,8.0,66,0.00,,,0.00,Wunderground v.1.15,2013-04-01 11:44:00,
2013-04-01 05:54:00,33.3,23.2,29.98,East,94,6.0,8.0,66,0.00,,,0.00,Wunderground v.1.15,2013-04-01 11:54:00,
2013-04-01 05:59:00,33.1,23.3,29.98,ESE,103,6.0,6.0,67,0.00,,,0.00,Wunderground v.1.15,2013-04-01 11:59:00,
2013-04-01 06:09:00,32.7,23.3,29.98,ENE,59,6.0,6.0,68,0.00,,,0.00,Wunderground v.1.15,2013-04-01 12:09:00,
2013-04-01 06:19:00,32.5,23.1,29.99,East,88,6.0,8.0,68,0.00,,,0.00,Wunderground v.1.15,2013-04-01 12:19:00,
2013-04-01 06:24:00,32.5,23.5,29.99,East,80,6.0,8.0,69,0.00,,,0.00,Wunderground v.1.15,2013-04-01 12:24:00,
2013-04-01 06:29:00,32.5,23.5,29.98,ENE,59,6.0,6.0,69,0.00,,,0.00,Wunderground v.1.15,2013-04-01 12:29:00,
2013-04-01 06:39:00,32.4,23.4,29.98,East,90,5.0,6.0,69,0.00,,,0.00,Wunderground v.1.15,2013-04-01 12:39:00,
2013-04-01 06:44:00,32.5,23.5,29.99,East,84,6.0,6.0,69,0.00,,,0.00,Wunderground v.1.15,2013-04-01 12:44:00,
2013-04-01 06:54:00,32.5,23.8,29.98,East,90,6.0,7.0,70,0.00,,,0.00,Wunderground v.1.15,2013-04-01 12:54:00,
2013-04-01 06:59:00,32.4,23.7,29.98,East,87,6.0,6.0,70,0.00,,,0.00,Wunderground v.1.15,2013-04-01 12:59:00,
2013-04-01 07:09:00,32.5,23.8,29.99,East,96,6.0,7.0,70,0.00,,,0.00,Wunderground v.1.15,2013-04-01 13:09:00,
2013-04-01 07:19:00,32.8,24.1,29.98,East,83,6.0,6.0,70,0.00,,,0.00,Wunderground v.1.15,2013-04-01 13:19:00,
2013-04-01 07:24:00,32.9,24.2,29.99,ENE,69,5.0,6.0,70,0.00,,,0.00,Wunderground v.1.15,2013-04-01 13:24:00,
2013-04-01 07:34:00,32.9,24.2,29.99,East,85,5.0,7.0,70,0.00,,,0.00,Wunderground v.1.15,2013-04-01 13:34:00,
2013-04-01 07:44:00,33.0,24.3,29.99,East,92,5.0,9.0,70,0.00,,,0.00,Wunderground v.1.15,2013-04-01 13:44:00,
2013-04-01 07:49:00,33.0,24.3,29.99,East,86,6.0,6.0,70,0.00,,,0.00,Wunderground v.1.15,2013-04-01 13:49:00,
2013-04-01 07:54:00,32.8,24.1,29.99,East,86,4.0,6.0,70,0.00,,,0.00,Wunderground v.1.15,2013-04-01 13:54:00,
2013-04-01 07:59:00,32.7,24.3,29.99,East,94,3.0,5.0,71,0.00,,,0.00,Wunderground v.1.15,2013-04-01 13:59:00,
2013-04-01 08:09:00,32.6,24.6,29.99,East,88,2.0,5.0,72,0.00,,,0.00,Wunderground v.1.15,2013-04-01 14:09:00,
2013-04-01 08:14:00,33.2,24.8,29.99,East,88,3.0,5.0,71,0.00,,,0.00,Wunderground v.1.15,2013-04-01 14:14:00,
2013-04-01 08:19:00,32.9,24.9,29.99,East,88,1.0,1.0,72,0.00,,,0.00,Wunderground v.1.15,2013-04-01 14:19:00,
2013-04-01 08:24:00,32.8,25.1,29.99,East,88,0.0,1.0,73,0.00,,,0.00,Wunderground v.1.15,2013-04-01 14:24:00,
2013-04-01 08:34:00,33.7,25.6,29.99,East,92,1.0,1.0,72,0.00,,,0.00,Wunderground v.1.15,2013-04-01 14:34:00,
2013-04-01 08:44:00,35.8,26.3,29.99,East,96,1.0,1.0,68,0.00,,,0.00,Wunderground v.1.15,2013-04-01 14:44:00,
2013-04-01 08:49:00,36.2,27.0,29.98,East,96,1.0,1.0,69,0.00,,,0.00,Wunderground v.1.15,2013-04-01 14:49:00,
2013-04-01 08:54:00,36.8,27.2,29.98,East,96,0.0,1.0,68,0.00,,,0.00,Wunderground v.1.15,2013-04-01 14:54:00,
2013-04-01 09:00:00,37.5,27.9,29.98,East,96,0.0,0.0,68,0.00,,,0.00,Wunderground v.1.15,2013-04-01 15:00:00,
2013-04-01 09:09:00,38.8,28.4,29.98,East,96,0.0,0.0,66,0.00,,,0.00,Wunderground v.1.15,2013-04-01 15:09:00,
2013-04-01 09:14:00,40.2,27.8,29.97,East,96,0.0,0.0,61,0.00,,,0.00,Wunderground v.1.15,2013-04-01 15:14:00,
2013-04-01 09:19:00,42.3,29.0,29.97,East,96,0.0,0.0,59,0.00,,,0.00,Wunderground v.1.15,2013-04-01 15:19:00,
2013-04-01 09:24:00,42.9,28.7,29.97,East,96,0.0,0.0,57,0.00,,,0.00,Wunderground v.1.15,2013-04-01 15:24:00,
2013-04-01 09:29:00,44.5,29.3,29.97,East,96,0.0,0.0,55,0.00,,,0.00,Wunderground v.1.15,2013-04-01 15:29:00,
2013-04-01 09:39:00,48.2,28.4,29.96,WNW,301,0.0,3.0,46,0.00,,,0.00,Wunderground v.1.15,2013-04-01 15:39:00,
2013-04-01 09:44:00,49.4,28.4,29.96,NW,309,1.0,3.0,44,0.00,,,0.00,Wunderground v.1.15,2013-04-01 15:44:00,
2013-04-01 09:49:00,50.2,28.0,29.95,NW,321,2.0,4.0,42,0.00,,,0.00,Wunderground v.1.15,2013-04-01 15:49:00,
2013-04-01 09:54:00,50.7,27.8,29.95,NW,306,2.0,4.0,41,0.00,,,0.00,Wunderground v.1.15,2013-04-01 15:54:00,
2013-04-01 10:00:00,51.4,27.9,29.95,NNW,343,2.0,4.0,40,0.00,,,0.00,Wunderground v.1.15,2013-04-01 16:00:00,
2013-04-01 10:09:00,51.6,27.4,29.94,NNW,331,4.0,8.0,39,0.00,,,0.00,Wunderground v.1.15,2013-04-01 16:09:00,
2013-04-01 10:14:00,51.7,27.5,29.94,NNW,327,3.0,8.0,39,0.00,,,0.00,Wunderground v.1.15,2013-04-01 16:14:00,
2013-04-01 10:19:00,52.0,27.1,29.94,NW,321,2.0,2.0,38,0.00,,,0.00,Wunderground v.1.15,2013-04-01 16:19:00,
2013-04-01 10:24:00,52.2,27.3,29.94,NNW,339,3.0,3.0,38,0.00,,,0.00,Wunderground v.1.15,2013-04-01 16:24:00,
2013-04-01 10:34:00,52.6,27.7,29.94,NW,325,3.0,4.0,38,0.00,,,0.00,Wunderground v.1.15,2013-04-01 16:34:00,
2013-04-01 10:39:00,52.6,27.7,29.94,WNW,298,3.0,3.0,38,0.00,,,0.00,Wunderground v.1.15,2013-04-01 16:39:00,
2013-04-01 10:44:00,52.9,26.6,29.94,North,9,3.0,3.0,36,0.00,,,0.00,Wunderground v.1.15,2013-04-01 16:44:00,
2013-04-01 10:49:00,52.8,27.2,29.94,NW,321,3.0,3.0,37,0.00,,,0.00,Wunderground v.1.15,2013-04-01 16:49:00,
2013-04-01 10:54:00,52.7,27.1,29.94,NNW,330,4.0,6.0,37,0.00,,,0.00,Wunderground v.1.15,2013-04-01 16:54:00,
2013-04-01 10:59:00,52.9,27.3,29.94,NNW,329,5.0,5.0,37,0.00,,,0.00,Wunderground v.1.15,2013-04-01 16:59:00,
2013-04-01 11:09:00,52.7,27.1,29.93,NW,326,2.0,5.0,37,0.00,,,0.00,Wunderground v.1.15,2013-04-01 17:09:00,
2013-04-01 11:14:00,52.8,27.2,29.93,NNW,338,3.0,7.0,37,0.00,,,0.00,Wunderground v.1.15,2013-04-01 17:14:00,
2013-04-01 11:19:00,52.8,26.6,29.93,NNW,343,5.0,6.0,36,0.00,,,0.00,Wunderground v.1.15,2013-04-01 17:19:00,
2013-04-01 11:29:00,53.7,27.4,29.93,NNW,327,3.0,9.0,36,0.00,,,0.00,Wunderground v.1.15,2013-04-01 17:29:00,
2013-04-01 11:34:00,53.7,26.7,29.93,NW,325,4.0,9.0,35,0.00,,,0.00,Wunderground v.1.15,2013-04-01 17:34:00,
2013-04-01 11:44:00,53.1,25.4,29.92,NE,53,4.0,7.0,34,0.00,,,0.00,Wunderground v.1.15,2013-04-01 17:44:00,
2013-04-01 11:49:00,54.4,26.6,29.92,NNW,342,2.0,2.0,34,0.00,,,0.00,Wunderground v.1.15,2013-04-01 17:49:00,
2013-04-01 11:54:00,54.9,25.6,29.92,WNW,301,3.0,5.0,32,0.00,,,0.00,Wunderground v.1.15,2013-04-01 17:54:00,
2013-04-01 11:59:00,54.8,23.9,29.92,NNW,327,5.0,5.0,30,0.00,,,0.00,Wunderground v.1.15,2013-04-01 17:59:00,
2013-04-01 12:09:00,54.7,20.4,29.92,NNW,341,6.0,6.0,26,0.00,,,0.00,Wunderground v.1.15,2013-04-01 18:09:00,
2013-04-01 12:14:00,54.7,20.4,29.92,NW,321,5.0,6.0,26,0.00,,,0.00,Wunderground v.1.15,2013-04-01 18:14:00,
2013-04-01 12:24:00,55.1,19.9,29.91,NNE,27,4.0,4.0,25,0.00,,,0.00,Wunderground v.1.15,2013-04-01 18:24:00,
2013-04-01 12:29:00,55.4,16.1,29.91,NW,309,6.0,8.0,21,0.00,,,0.00,Wunderground v.1.15,2013-04-01 18:29:00,
2013-04-01 12:39:00,55.4,13.8,29.91,North,5,6.0,6.0,19,0.00,,,0.00,Wunderground v.1.15,2013-04-01 18:39:00,
2013-04-01 12:49:00,55.1,9.6,29.91,NNW,333,7.0,7.0,16,0.00,,,0.00,Wunderground v.1.15,2013-04-01 18:49:00,
2013-04-01 12:54:00,55.7,11.5,29.91,WNW,302,6.0,7.0,17,0.00,,,0.00,Wunderground v.1.15,2013-04-01 18:54:00,
2013-04-01 12:59:00,55.4,11.2,29.91,North,350,5.0,5.0,17,0.00,,,0.00,Wunderground v.1.15,2013-04-01 18:59:00,
2013-04-01 13:09:00,56.1,14.3,29.90,NW,326,6.0,6.0,19,0.00,,,0.00,Wunderground v.1.15,2013-04-01 19:09:00,
2013-04-01 13:14:00,56.6,12.2,29.90,NW,315,5.0,6.0,17,0.00,,,0.00,Wunderground v.1.15,2013-04-01 19:14:00,
2013-04-01 13:19:00,56.3,12.0,29.90,NW,306,6.0,7.0,17,0.00,,,0.00,Wunderground v.1.15,2013-04-01 19:19:00,
2013-04-01 13:29:00,56.3,13.3,29.90,NNE,29,6.0,6.0,18,0.00,,,0.00,Wunderground v.1.15,2013-04-01 19:29:00,
2013-04-01 13:39:00,56.0,15.4,29.90,NW,316,4.0,4.0,20,0.00,,,0.00,Wunderground v.1.15,2013-04-01 19:39:00,
2013-04-01 13:44:00,56.6,14.8,29.90,NNW,338,5.0,10.0,19,0.00,,,0.00,Wunderground v.1.15,2013-04-01 19:44:00,
2013-04-01 13:49:00,56.0,14.3,29.89,NNW,331,6.0,8.0,19,0.00,,,0.00,Wunderground v.1.15,2013-04-01 19:49:00,
2013-04-01 13:54:00,56.1,15.5,29.89,NNW,333,7.0,8.0,20,0.00,,,0.00,Wunderground v.1.15,2013-04-01 19:54:00,
2013-04-01 13:59:00,55.9,15.3,29.89,WNW,286,7.0,7.0,20,0.00,,,0.00,Wunderground v.1.15,2013-04-01 19:59:00,
2013-04-01 14:09:00,56.0,16.6,29.88,NNW,331,4.0,4.0,21,0.00,,,0.00,Wunderground v.1.15,2013-04-01 20:09:00,
2013-04-01 14:19:00,55.8,16.4,29.88,NNW,329,2.0,4.0,21,0.00,,,0.00,Wunderground v.1.15,2013-04-01 20:19:00,
2013-04-01 14:24:00,57.0,15.1,29.88,NNW,338,5.0,17.0,19,0.00,,,0.00,Wunderground v.1.15,2013-04-01 20:24:00,
2013-04-01 14:29:00,56.7,14.8,29.88,NNW,331,9.0,9.0,19,0.00,,,0.00,Wunderground v.1.15,2013-04-01 20:29:00,
2013-04-01 14:39:00,55.7,16.3,29.87,NNW,332,5.0,7.0,21,0.00,,,0.00,Wunderground v.1.15,2013-04-01 20:39:00,
2013-04-01 14:44:00,56.7,16.0,29.87,NNW,331,5.0,10.0,20,0.00,,,0.00,Wunderground v.1.15,2013-04-01 20:44:00,
2013-04-01 14:54:00,56.1,14.3,29.87,NNW,328,5.0,6.0,19,0.00,,,0.00,Wunderground v.1.15,2013-04-01 20:54:00,
2013-04-01 15:00:00,56.2,14.4,29.86,NNW,327,3.0,3.0,19,0.00,,,0.00,Wunderground v.1.15,2013-04-01 21:00:00,
2013-04-01 15:09:00,56.6,15.9,29.85,NNW,342,4.0,13.0,20,0.00,,,0.00,Wunderground v.1.15,2013-04-01 21:09:00,
2013-04-01 15:14:00,56.9,11.1,29.85,NNW,335,6.0,13.0,16,0.00,,,0.00,Wunderground v.1.15,2013-04-01 21:14:00,
2013-04-01 15:19:00,56.7,10.9,29.84,NNW,340,6.0,7.0,16,0.00,,,0.00,Wunderground v.1.15,2013-04-01 21:19:00,
2013-04-01 15:29:00,56.9,11.1,29.84,South,189,4.0,4.0,16,0.00,,,0.00,Wunderground v.1.15,2013-04-01 21:29:00,
2013-04-01 15:39:00,57.4,10.0,29.83,NNE,28,5.0,5.0,15,0.00,,,0.00,Wunderground v.1.15,2013-04-01 21:39:00,
2013-04-01 15:44:00,57.5,11.6,29.84,NNW,348,6.0,6.0,16,0.00,,,0.00,Wunderground v.1.15,2013-04-01 21:44:00,
2013-04-01 15:49:00,57.1,8.3,29.84,NNW,332,5.0,7.0,14,0.00,,,0.00,Wunderground v.1.15,2013-04-01 21:49:00,
2013-04-01 15:54:00,57.1,9.8,29.83,NNW,331,4.0,7.0,15,0.00,,,0.00,Wunderground v.1.15,2013-04-01 21:54:00,
2013-04-01 15:59:00,56.9,8.1,29.83,ENE,75,3.0,4.0,14,0.00,,,0.00,Wunderground v.1.15,2013-04-01 21:59:00,
2013-04-01 16:09:00,57.2,8.3,29.83,NW,321,6.0,6.0,14,0.00,,,0.00,Wunderground v.1.15,2013-04-01 22:09:00,
2013-04-01 16:14:00,56.9,9.6,29.83,NW,326,5.0,6.0,15,0.00,,,0.00,Wunderground v.1.15,2013-04-01 22:14:00,
2013-04-01 16:19:00,56.8,9.6,29.83,North,11,3.0,3.0,15,0.00,,,0.00,Wunderground v.1.15,2013-04-01 22:19:00,
2013-04-01 16:24:00,56.8,8.0,29.82,NNW,330,4.0,4.0,14,0.00,,,0.00,Wunderground v.1.15,2013-04-01 22:24:00,
2013-04-01 16:34:00,56.9,8.1,29.81,NW,325,2.0,9.0,14,0.00,,,0.00,Wunderground v.1.15,2013-04-01 22:34:00,
2013-04-01 16:44:00,56.9,9.6,29.82,NNW,336,4.0,4.0,15,0.00,,,0.00,Wunderground v.1.15,2013-04-01 22:44:00,
2013-04-01 16:49:00,56.2,7.5,29.82,West,276,3.0,3.0,14,0.00,,,0.00,Wunderground v.1.15,2013-04-01 22:49:00,
2013-04-01 16:59:00,55.7,10.1,29.81,East,92,2.0,2.0,16,0.00,,,0.00,Wunderground v.1.15,2013-04-01 22:59:00,
2013-04-01 17:09:00,55.4,11.2,29.82,NNW,341,2.0,4.0,17,0.00,,,0.00,Wunderground v.1.15,2013-04-01 23:09:00,
2013-04-01 17:19:00,55.5,11.3,29.82,NNW,341,2.0,2.0,17,0.00,,,0.00,Wunderground v.1.15,2013-04-01 23:19:00,
2013-04-01 17:24:00,55.8,12.9,29.81,NW,312,1.0,4.0,18,0.00,,,0.00,Wunderground v.1.15,2013-04-01 23:24:00,
2013-04-01 17:29:00,56.2,10.5,29.81,NW,312,2.0,2.0,16,0.00,,,0.00,Wunderground v.1.15,2013-04-01 23:29:00,
2013-04-01 17:39:00,56.2,11.9,29.81,NNE,19,2.0,3.0,17,0.00,,,0.00,Wunderground v.1.15,2013-04-01 23:39:00,
2013-04-01 17:44:00,55.7,14.0,29.82,NNW,335,1.0,3.0,19,0.00,,,0.00,Wunderground v.1.15,2013-04-01 23:44:00,
2013-04-01 17:54:00,55.5,11.3,29.81,South,188,4.0,4.0,17,0.00,,,0.00,Wunderground v.1.15,2013-04-01 23:54:00,
2013-04-01 17:59:00,54.7,13.2,29.82,SW,234,3.0,3.0,19,0.00,,,0.00,Wunderground v.1.15,2013-04-01 23:59:00,
2013-04-01 18:09:00,54.5,10.5,29.82,ENE,63,2.0,2.0,17,0.00,,,0.00,Wunderground v.1.15,2013-04-02 00:09:00,
2013-04-01 18:14:00,54.7,15.5,29.81,ENE,68,2.0,2.0,21,0.00,,,0.00,Wunderground v.1.15,2013-04-02 00:14:00,
2013-04-01 18:19:00,53.7,12.4,29.82,NNE,15,2.0,3.0,19,0.00,,,0.00,Wunderground v.1.15,2013-04-02 00:19:00,
2013-04-01 18:29:00,54.3,10.3,29.81,ENE,67,1.0,1.0,17,0.00,,,0.00,Wunderground v.1.15,2013-04-02 00:29:00,
2013-04-01 18:34:00,52.7,18.7,29.81,East,86,0.0,1.0,26,0.00,,,0.00,Wunderground v.1.15,2013-04-02 00:34:00,
2013-04-01 18:39:00,51.2,15.6,29.81,East,86,0.0,0.0,24,0.00,,,0.00,Wunderground v.1.15,2013-04-02 00:39:00,
2013-04-01 18:49:00,49.0,19.6,29.82,SSE,153,0.0,2.0,31,0.00,,,0.00,Wunderground v.1.15,2013-04-02 00:49:00,
2013-04-01 18:54:00,49.0,18.9,29.82,SW,214,1.0,4.0,30,0.00,,,0.00,Wunderground v.1.15,2013-04-02 00:54:00,
2013-04-01 18:59:00,50.8,17.1,29.82,SW,219,2.0,2.0,26,0.00,,,0.00,Wunderground v.1.15,2013-04-02 00:59:00,
2013-04-01 19:09:00,48.9,18.8,29.82,South,186,0.0,0.0,30,0.00,,,0.00,Wunderground v.1.15,2013-04-02 01:09:00,
2013-04-01 19:14:00,47.9,20.8,29.82,East,99,0.0,2.0,34,0.00,,,0.00,Wunderground v.1.15,2013-04-02 01:14:00,
2013-04-01 19:19:00,46.8,21.9,29.83,South,188,1.0,1.0,37,0.00,,,0.00,Wunderground v.1.15,2013-04-02 01:19:00,
2013-04-01 19:24:00,45.9,21.1,29.82,South,188,0.0,1.0,37,0.00,,,0.00,Wunderground v.1.15,2013-04-02 01:24:00,
2013-04-01 19:29:00,45.7,21.5,29.83,South,186,0.0,0.0,38,0.00,,,0.00,Wunderground v.1.15,2013-04-02 01:29:00,
2013-04-01 19:39:00,45.3,22.4,29.83,ESE,118,1.0,1.0,40,0.00,,,0.00,Wunderground v.1.15,2013-04-02 01:39:00,
2013-04-01 19:44:00,44.7,21.2,29.83,SSE,161,1.0,1.0,39,0.00,,,0.00,Wunderground v.1.15,2013-04-02 01:44:00,
2013-04-01 19:49:00,44.4,22.1,29.82,SSE,161,0.0,0.0,41,0.00,,,0.00,Wunderground v.1.15,2013-04-02 01:49:00,
2013-04-01 19:54:00,43.4,25.0,29.83,SSE,161,0.0,0.0,48,0.00,,,0.00,Wunderground v.1.15,2013-04-02 01:54:00,
2013-04-01 19:59:00,43.0,22.0,29.83,SSE,161,0.0,0.0,43,0.00,,,0.00,Wunderground v.1.15,2013-04-02 01:59:00,
2013-04-01 20:09:00,42.1,23.8,29.83,East,92,0.0,14.0,48,0.00,,,0.00,Wunderground v.1.15,2013-04-02 02:09:00,
2013-04-01 20:19:00,43.4,20.7,29.83,SW,217,2.0,2.0,40,0.00,,,0.00,Wunderground v.1.15,2013-04-02 02:19:00,
2013-04-01 20:24:00,42.8,21.3,29.83,SW,215,0.0,2.0,42,0.00,,,0.00,Wunderground v.1.15,2013-04-02 02:24:00,
2013-04-01 20:29:00,42.6,21.1,29.83,SW,215,1.0,1.0,42,0.00,,,0.00,Wunderground v.1.15,2013-04-02 02:29:00,
2013-04-01 20:39:00,42.0,20.0,29.84,SSE,157,0.0,0.0,41,0.00,,,0.00,Wunderground v.1.15,2013-04-02 02:39:00,
2013-04-01 20:44:00,41.8,20.4,29.84,South,179,0.0,1.0,42,0.00,,,0.00,Wunderground v.1.15,2013-04-02 02:44:00,
2013-04-01 20:49:00,41.4,21.1,29.84,ESE,117,1.0,3.0,44,0.00,,,0.00,Wunderground v.1.15,2013-04-02 02:49:00,
2013-04-01 20:54:00,41.2,20.4,29.85,SW,220,2.0,3.0,43,0.00,,,0.00,Wunderground v.1.15,2013-04-02 02:54:00,
2013-04-01 20:59:00,41.0,19.6,29.85,SE,137,1.0,1.0,42,0.00,,,0.00,Wunderground v.1.15,2013-04-02 02:59:00,
2013-04-01 21:09:00,40.7,22.0,29.85,SW,219,1.0,3.0,47,0.00,,,0.00,Wunderground v.1.15,2013-04-02 03:09:00,
2013-04-01 21:14:00,40.2,20.5,29.85,SW,218,1.0,3.0,45,0.00,,,0.00,Wunderground v.1.15,2013-04-02 03:14:00,
2013-04-01 21:19:00,39.6,20.0,29.85,SSW,200,0.0,0.0,45,0.00,,,0.00,Wunderground v.1.15,2013-04-02 03:19:00,
2013-04-01 21:24:00,39.5,20.4,29.86,ESE,111,0.0,0.0,46,0.00,,,0.00,Wunderground v.1.15,2013-04-02 03:24:00,
2013-04-01 21:29:00,39.4,20.3,29.86,SE,130,0.0,0.0,46,0.00,,,0.00,Wunderground v.1.15,2013-04-02 03:29:00,
2013-04-01 21:34:00,39.1,21.5,29.86,SSW,202,0.0,1.0,49,0.00,,,0.00,Wunderground v.1.15,2013-04-02 03:34:00,
2013-04-01 21:39:00,39.2,21.6,29.86,East,80,1.0,1.0,49,0.00,,,0.00,Wunderground v.1.15,2013-04-02 03:39:00,
2013-04-01 21:44:00,38.9,20.9,29.86,SSW,213,2.0,2.0,48,0.00,,,0.00,Wunderground v.1.15,2013-04-02 03:44:00,
2013-04-01 21:49:00,38.9,19.9,29.87,West,279,1.0,1.0,46,0.00,,,0.00,Wunderground v.1.15,2013-04-02 03:49:00,
2013-04-01 21:54:00,38.6,20.6,29.86,South,184,0.0,1.0,48,0.00,,,0.00,Wunderground v.1.15,2013-04-02 03:54:00,
2013-04-01 21:59:00,38.7,19.2,29.86,East,85,2.0,6.0,45,0.00,,,0.00,Wunderground v.1.15,2013-04-02 03:59:00,
2013-04-01 22:04:00,38.4,19.4,29.86,SSW,192,2.0,6.0,46,0.00,,,0.00,Wunderground v.1.15,2013-04-02 04:04:00,
2013-04-01 22:09:00,38.1,20.1,29.87,East,83,1.0,7.0,48,0.00,,,0.00,Wunderground v.1.15,2013-04-02 04:09:00,
2013-04-01 22:14:00,38.7,19.7,29.87,East,98,3.0,7.0,46,0.00,,,0.00,Wunderground v.1.15,2013-04-02 04:14:00,
2013-04-01 22:19:00,38.8,18.7,29.87,ESE,109,5.0,5.0,44,0.00,,,0.00,Wunderground v.1.15,2013-04-02 04:19:00,
2013-04-01 22:24:00,38.3,19.8,29.87,East,84,4.0,8.0,47,0.00,,,0.00,Wunderground v.1.15,2013-04-02 04:24:00,
2013-04-01 22:29:00,38.3,17.7,29.87,East,93,3.0,3.0,43,0.00,,,0.00,Wunderground v.1.15,2013-04-02 04:29:00,
2013-04-01 22:39:00,37.8,19.3,29.87,ESE,117,2.0,2.0,47,0.00,,,0.00,Wunderground v.1.15,2013-04-02 04:39:00,
2013-04-01 22:49:00,37.0,19.6,29.87,ESE,109,1.0,1.0,49,0.00,,,0.00,Wunderground v.1.15,2013-04-02 04:49:00,
2013-04-01 22:54:00,36.6,18.2,29.87,ESE,118,0.0,1.0,47,0.00,,,0.00,Wunderground v.1.15,2013-04-02 04:54:00,
2013-04-01 22:59:00,36.3,19.9,29.87,ESE,118,0.0,0.0,51,0.00,,,0.00,Wunderground v.1.15,2013-04-02 04:59:00,
2013-04-01 23:04:00,35.8,19.0,29.87,ESE,118,0.0,0.0,50,0.00,,,0.00,Wunderground v.1.15,2013-04-02 05:04:00,
2013-04-01 23:09:00,35.5,18.7,29.87,SE,126,0.0,0.0,50,0.00,,,0.00,Wunderground v.1.15,2013-04-02 05:09:00,
2013-04-01 23:14:00,35.1,19.2,29.87,SE,126,0.0,0.0,52,0.00,,,0.00,Wunderground v.1.15,2013-04-02 05:14:00,
2013-04-01 23:24:00,34.6,19.2,29.87,ESE,114,0.0,0.0,53,0.00,,,0.00,Wunderground v.1.15,2013-04-02 05:24:00,
2013-04-01 23:29:00,34.4,19.5,29.87,ESE,103,0.0,0.0,54,0.00,,,0.00,Wunderground v.1.15,2013-04-02 05:29:00,
2013-04-01 23:39:00,34.0,19.9,29.87,ESE,123,0.0,1.0,56,0.00,,,0.00,Wunderground v.1.15,2013-04-02 05:39:00,
2013-04-01 23:44:00,33.8,18.9,29.87,ENE,69,0.0,1.0,54,0.00,,,0.00,Wunderground v.1.15,2013-04-02 05:44:00,
2013-04-01 23:49:00,33.8,18.9,29.87,ESE,102,0.0,1.0,54,0.00,,,0.00,Wunderground v.1.15,2013-04-02 05:49:00,